Погода в Хубли

Индия     15°21′01″N   75°08′14″E
темп.,
°C
ветер,
м/с
пор.,
м/с
влажн.,
%
обл.,
%
осадки,
мм/ч
давл.,
гПа
погр.,
м
22 апреля, чт
чт2223:30+26зюз6664100 0.0 1012516
02:30+24зюз56706 0.0 1011366
05:30+23зюз337729 0.0 1011163
08:30+27зсз345498 0.0 1013491
11:30+35ссв452389 0.0 10101910
14:30+37ссз1318100 0.0 10073726
17:30+36з762495 0.0 10062720
20:30+28з81064100 0.0 1010569
23 апреля, пт
пт2323:30+25юз7877100 0.0 1012548
02:30+24юз5679100 0.0 1011490
05:30+23зюз578555 0.0 1011401
08:30+26зюз446330 0.0 1013585
11:30+32з33336 0.0 10111463
14:30+35ссз1224100 0.0 10072846
17:30+36св022287 0.0 10053285
20:30+28зюз8960100 0.0 1010655
24 апреля, сб
сб2423:30+25зюз677280 0.1 1012465
02:30+25зюз556897 0.0 1009341
05:30+25юз226822 0.0 1011318
08:30+27зюз22549 0.0 1012455
11:30+33сз22295 0.0 10101472
14:30+36ссв122325 0.0 10063257
17:30+36ююв532468 0.0 10061510
20:30+30юз774970 0.1 1010691
25 апреля, вс
вс2523:30+26з7859100 0.1 1011358
02:30+24зюз586238 0.1 1009309
05:30+24ююз447080 0.6 1011258
08:30+27з44494 0.0 1012362
11:30+34з22275 0.1 10101368
14:30+37ссв132094 0.0 10063793
17:30+35юв762599 0.3 1006614
20:30+29юз985769 0.1 1010675
26 апреля, пн
пн2623:30+26зюз67696 0.1 1010298
02:30+24юз687555 0.0 1008304
05:30+26с376370 0.1 1010404
08:30+30юз443964 0.9 1010300
11:30+35зсз22239 0.9 10081539
14:30+38ссв231879 0.0 10043990
17:30+31юз111140100 0.0 1006736
20:30+29сз101044100 1.2 1009389